STARLINK-2428

operational
NORAD ID: 48099 Int'l Des: 2021-027 Owner: SPXS Country: US Constellation: starlink
LEOCIRCULARSTARLINK_TYPE

STARLINK-2428について

説明を読み込み中...

リアルタイム位置

3D地球を読み込み中...

次回通過

高度履歴

Altitude vs Time

uPlot chart will show altitude changes over time

軌道要素

1 48099U 21027H 25251.77021394 .00000419 00000-0 47023-4 0 9994
2 48099 53.0545 268.2862 0001353 86.6899 273.4244 15.06393836244994
Epoch: Sep 8, 2025 • Age: 16 hours

現在のステータス

高度 554.7 km
速度 7.58 km/s
衛星直下点 -24.32°S, 102.78°E
打ち上げ日 Apr 7, 2021
運用期間 4.4 years
タイプ internet

技術仕様

分類 Payload
質量 260.00 kg
乾燥質量 248.00 kg
総質量 260.00 kg
長さ 0.20 m
直径 2.80 m
スパン 9.00 m
形状 Box + pan
製造者 SPXS
バスタイプ Starlink
フェーズステータス In Orbit
所有者/国 SPXS/US

大規模コンステレーション

Loading constellations...